| time (UTC) | temp F | wind direction | speed MPH | gust MPH | rain 1hr in | rain 24hr in | rain mn in | humidity % | barometer mb |
| 20260505153049 | 82 | 57 | 2.0 | 4.0 | 0.00 | 0.00 | 0.00 | 48 | 1016.8 |
| 20260505152545 | 82 | 130 | 4.0 | 7.0 | 0.00 | 0.00 | 0.00 | 50 | 1016.7 |
| 20260505152041 | 82 | 16 | 1.0 | 2.0 | 0.00 | 0.00 | 0.00 | 49 | 1016.6 |
| 20260505151536 | 83 | 345 | 2.0 | 6.0 | 0.00 | 0.00 | 0.00 | 51 | 1016.7 |
| 20260505151034 | 81 | 24 | 1.0 | 3.0 | 0.00 | 0.00 | 0.00 | 50 | 1016.8 |
| 20260505150530 | 81 | 95 | 6.0 | 10.0 | 0.00 | 0.00 | 0.00 | 53 | 1016.5 |
| 20260505140455 | 77 | 66 | 3.0 | 7.0 | 0.00 | 0.00 | 0.00 | 65 | 1016.4 |
| 20260505124909 | 74 | 140 | 2.0 | 6.0 | 0.00 | 0.00 | 0.00 | 75 | 1016.3 |
| 20260505124406 | 73 | 48 | 2.0 | 4.0 | 0.00 | 0.00 | 0.00 | 75 | 1016.2 |
| 20260505123902 | 73 | 105 | 2.0 | 4.0 | 0.00 | 0.00 | 0.00 | 76 | 1016.3 |
| 20260505123359 | 72 | 52 | 2.0 | 2.0 | 0.00 | 0.00 | 0.00 | 77 | 1016.5 |
| 20260505122854 | 71 | 30 | 1.0 | 1.0 | 0.00 | 0.00 | 0.00 | 79 | 1016.4 |
| 20260505122352 | 71 | 51 | 1.0 | 4.0 | 0.00 | 0.00 | 0.00 | 80 | 1016.5 |
| 20260505121849 | 71 | 51 | 2.0 | 3.0 | 0.00 | 0.00 | 0.00 | 80 | 1016.1 |
| 20260505121346 | 70 | 35 | 1.0 | 2.0 | 0.00 | 0.00 | 0.00 | 81 | 1016.2 |
| 20260505120842 | 69 | 24 | 0.0 | 1.0 | 0.00 | 0.00 | 0.00 | 84 | 1015.9 |
| 20260505120338 | 67 | 33 | 1.0 | 2.0 | 0.00 | 0.00 | 0.00 | 90 | 1016.1 |
| 20260505115837 | 66 | 12 | 1.0 | 1.0 | 0.00 | 0.00 | 0.00 | 92 | 1015.8 |
| 20260505115334 | 65 | 355 | 0.0 | 0.0 | 0.00 | 0.00 | 0.00 | 93 | 1016.1 |
| 20260505114832 | 64 | 353 | 0.0 | 0.0 | 0.00 | 0.00 | 0.00 | 93 | 1016.2 |
| 20260505114328 | 64 | 352 | 0.0 | 0.0 | 0.00 | 0.00 | 0.00 | 93 | 1016.1 |
| 20260505113825 | 64 | 352 | 0.0 | 0.0 | 0.00 | 0.00 | 0.00 | 93 | 1016.0 |
| 20260505113321 | 63 | 353 | 0.0 | 0.0 | 0.00 | 0.00 | 0.00 | 93 | 1015.8 |
| 20260505112817 | 63 | 353 | 0.0 | 0.0 | 0.00 | 0.00 | 0.00 | 93 | 1015.9 |
| 20260505112314 | 63 | 353 | 0.0 | 0.0 | 0.00 | 0.00 | 0.00 | 93 | 1015.6 |
| 20260505111810 | 62 | 353 | 0.0 | 0.0 | 0.00 | 0.00 | 0.00 | 93 | 1015.5 |
| 20260505111305 | 62 | 353 | 0.0 | 0.0 | 0.00 | 0.00 | 0.00 | 93 | 1015.5 |
| 20260505110801 | 62 | 0 | 0.0 | 0.0 | 0.00 | 0.00 | 0.00 | 93 | 1015.4 |
| 20260505110300 | 62 | 0 | 0.0 | 0.0 | 0.00 | 0.00 | 0.00 | 93 | 1015.3 |
| 20260505101733 | 62 | 0 | 0.0 | 0.0 | 0.00 | 0.00 | 0.00 | 91 | 1015.3 |
| 20260505101229 | 62 | 0 | 0.0 | 0.0 | 0.00 | 0.00 | 0.00 | 91 | 1015.2 |
| 20260505100726 | 63 | 0 | 0.0 | 0.0 | 0.00 | 0.00 | 0.00 | 91 | 1015.3 |
| 20260505100223 | 63 | 0 | 0.0 | 0.0 | 0.00 | 0.00 | 0.00 | 90 | 1015.1 |
| 20260505095723 | 63 | 0 | 0.0 | 0.0 | 0.00 | 0.00 | 0.00 | 90 | 1015.0 |
| 20260505095222 | 63 | 0 | 0.0 | 0.0 | 0.00 | 0.00 | 0.00 | 90 | 1015.0 |
| 20260505094717 | 63 | 0 | 0.0 | 0.0 | 0.00 | 0.00 | 0.00 | 90 | 1015.1 |
| 20260505094214 | 63 | 0 | 0.0 | 0.0 | 0.00 | 0.00 | 0.00 | 90 | 1014.9 |
| 20260505093710 | 62 | 0 | 0.0 | 0.0 | 0.00 | 0.00 | 0.00 | 90 | 1014.9 |
| 20260505093208 | 62 | 0 | 0.0 | 0.0 | 0.00 | 0.00 | 0.00 | 90 | 1014.9 |
| 20260505092704 | 62 | 0 | 0.0 | 0.0 | 0.00 | 0.00 | 0.00 | 90 | 1014.8 |
| 20260505092203 | 62 | 0 | 0.0 | 0.0 | 0.00 | 0.00 | 0.00 | 90 | 1015.0 |
| 20260505091700 | 62 | 0 | 0.0 | 0.0 | 0.00 | 0.00 | 0.00 | 90 | 1014.9 |
| 20260505091158 | 62 | 0 | 0.0 | 0.0 | 0.00 | 0.00 | 0.00 | 90 | 1014.9 |
| 20260505090655 | 62 | 0 | 0.0 | 0.0 | 0.00 | 0.00 | 0.00 | 90 | 1014.7 |
| 20260505090153 | 62 | 0 | 0.0 | 0.0 | 0.00 | 0.00 | 0.00 | 90 | 1014.5 |
| 20260505085650 | 62 | 0 | 0.0 | 0.0 | 0.00 | 0.00 | 0.00 | 90 | 1014.8 |
| 20260505085148 | 62 | 0 | 0.0 | 0.0 | 0.00 | 0.00 | 0.00 | 90 | 1014.9 |
| 20260505084645 | 62 | 0 | 0.0 | 0.0 | 0.00 | 0.00 | 0.00 | 90 | 1014.6 |
| 20260505084144 | 62 | 0 | 0.0 | 0.0 | 0.00 | 0.00 | 0.00 | 90 | 1014.8 |
| 20260505083641 | 62 | 0 | 0.0 | 0.0 | 0.00 | 0.00 | 0.00 | 89 | 1014.6 |
| 20260505083137 | 62 | 0 | 0.0 | 0.0 | 0.00 | 0.00 | 0.00 | 89 | 1014.8 |
| 20260505082633 | 62 | 0 | 0.0 | 0.0 | 0.00 | 0.00 | 0.00 | 89 | 1014.6 |
| 20260505082131 | 62 | 0 | 0.0 | 0.0 | 0.00 | 0.00 | 0.00 | 89 | 1014.8 |
| 20260505081626 | 62 | 0 | 0.0 | 0.0 | 0.00 | 0.00 | 0.00 | 89 | 1014.6 |
| 20260505081125 | 62 | 0 | 0.0 | 0.0 | 0.00 | 0.00 | 0.00 | 89 | 1014.5 |
| 20260505080620 | 62 | 0 | 0.0 | 0.0 | 0.00 | 0.00 | 0.00 | 89 | 1014.7 |
| 20260505080117 | 62 | 0 | 0.0 | 0.0 | 0.00 | 0.00 | 0.00 | 89 | 1014.8 |
| 20260505075613 | 62 | 0 | 0.0 | 0.0 | 0.00 | 0.00 | 0.00 | 89 | 1014.5 |
| 20260505075110 | 62 | 0 | 0.0 | 0.0 | 0.00 | 0.00 | 0.00 | 89 | 1014.8 |
| 20260505074607 | 62 | 0 | 0.0 | 0.0 | 0.00 | 0.00 | 0.00 | 89 | 1014.6 |
| 20260505074104 | 62 | 0 | 0.0 | 0.0 | 0.00 | 0.00 | 0.00 | 88 | 1014.8 |
| 20260505073601 | 62 | 0 | 0.0 | 0.0 | 0.00 | 0.00 | 0.00 | 88 | 1014.8 |
| 20260505073100 | 63 | 0 | 0.0 | 0.0 | 0.00 | 0.00 | 0.00 | 87 | 1015.0 |
| 20260505072555 | 63 | 0 | 0.0 | 0.0 | 0.00 | 0.00 | 0.00 | 87 | 1014.9 |
| 20260505072052 | 63 | 0 | 0.0 | 0.0 | 0.00 | 0.00 | 0.00 | 87 | 1014.6 |
| 20260505071547 | 63 | 0 | 0.0 | 0.0 | 0.00 | 0.00 | 0.00 | 87 | 1014.7 |
| 20260505071046 | 63 | 3 | 0.0 | 0.0 | 0.00 | 0.00 | 0.00 | 87 | 1014.7 |
| 20260505070543 | 63 | 4 | 0.0 | 0.0 | 0.00 | 0.00 | 0.00 | 86 | 1014.8 |
| 20260505070038 | 63 | 4 | 0.0 | 0.0 | 0.00 | 0.00 | 0.00 | 86 | 1014.9 |
| 20260505065534 | 63 | 4 | 0.0 | 0.0 | 0.00 | 0.00 | 0.00 | 86 | 1015.0 |
| 20260505065031 | 64 | 4 | 0.0 | 0.0 | 0.00 | 0.00 | 0.00 | 85 | 1015.2 |
| 20260505064528 | 64 | 4 | 0.0 | 0.0 | 0.00 | 0.00 | 0.00 | 84 | 1015.2 |
| 20260505064027 | 64 | 4 | 0.0 | 0.0 | 0.00 | 0.00 | 0.00 | 84 | 1015.2 |
| 20260505063524 | 64 | 4 | 0.0 | 0.0 | 0.00 | 0.00 | 0.00 | 84 | 1015.2 |
| 20260505063019 | 64 | 4 | 0.0 | 0.0 | 0.00 | 0.00 | 0.00 | 83 | 1015.3 |
| 20260505062516 | 65 | 4 | 0.0 | 0.0 | 0.00 | 0.00 | 0.00 | 83 | 1015.2 |
| 20260505062013 | 65 | 4 | 0.0 | 0.0 | 0.00 | 0.00 | 0.00 | 82 | 1015.3 |
| 20260505061511 | 65 | 4 | 0.0 | 0.0 | 0.00 | 0.00 | 0.00 | 82 | 1015.4 |
| 20260505061008 | 65 | 4 | 0.0 | 0.0 | 0.00 | 0.00 | 0.00 | 82 | 1015.0 |
| 20260505060506 | 65 | 4 | 0.0 | 0.0 | 0.00 | 0.00 | 0.00 | 82 | 1015.0 |
| 20260505060002 | 65 | 4 | 0.0 | 0.0 | 0.00 | 0.00 | 0.00 | 82 | 1015.4 |
| 20260505055458 | 65 | 4 | 0.0 | 0.0 | 0.00 | 0.00 | 0.00 | 81 | 1015.6 |
| 20260505054955 | 65 | 4 | 0.0 | 0.0 | 0.00 | 0.00 | 0.00 | 81 | 1015.4 |
| 20260505054452 | 66 | 4 | 0.0 | 0.0 | 0.00 | 0.00 | 0.00 | 80 | 1015.5 |
| 20260505053950 | 66 | 4 | 0.0 | 0.0 | 0.00 | 0.00 | 0.00 | 80 | 1015.7 |
| 20260505053447 | 66 | 4 | 0.0 | 0.0 | 0.00 | 0.00 | 0.00 | 80 | 1015.6 |
| 20260505052944 | 66 | 4 | 0.0 | 0.0 | 0.00 | 0.00 | 0.00 | 80 | 1015.8 |
| 20260505052441 | 66 | 4 | 0.0 | 0.0 | 0.00 | 0.00 | 0.00 | 80 | 1015.7 |
| 20260505051938 | 66 | 4 | 0.0 | 0.0 | 0.00 | 0.00 | 0.00 | 79 | 1016.0 |
| 20260505051434 | 66 | 4 | 0.0 | 0.0 | 0.00 | 0.00 | 0.00 | 79 | 1015.8 |
| 20260505050933 | 66 | 4 | 0.0 | 0.0 | 0.00 | 0.00 | 0.00 | 79 | 1016.1 |
| 20260505050431 | 66 | 4 | 0.0 | 0.0 | 0.00 | 0.00 | 0.00 | 78 | 1016.1 |
| 20260505041358 | 68 | 32 | 1.0 | 1.0 | 0.00 | 0.00 | 0.00 | 75 | 1016.0 |
| 20260505040855 | 68 | 10 | 0.0 | 0.0 | 0.00 | 0.00 | 0.00 | 74 | 1016.1 |
| 20260505040353 | 68 | 15 | 0.0 | 1.0 | 0.00 | 0.00 | 0.00 | 74 | 1016.2 |
| 20260505035849 | 68 | 23 | 1.0 | 2.0 | 0.00 | 0.00 | 0.00 | 74 | 1016.2 |
| 20260505035345 | 68 | 33 | 1.0 | 2.0 | 0.00 | 0.00 | 0.00 | 74 | 1016.1 |
| 20260505034843 | 68 | 14 | 0.0 | 2.0 | 0.00 | 0.00 | 0.00 | 74 | 1016.3 |
| 20260505034339 | 68 | 347 | 0.0 | 1.0 | 0.00 | 0.00 | 0.00 | 74 | 1016.1 |
| 20260505033836 | 68 | 6 | 1.0 | 2.0 | 0.00 | 0.00 | 0.00 | 74 | 1016.4 |
| 20260505033333 | 68 | 16 | 0.0 | 1.0 | 0.00 | 0.00 | 0.00 | 74 | 1016.5 |
| 20260505032832 | 68 | 5 | 0.0 | 1.0 | 0.00 | 0.00 | 0.00 | 74 | 1016.5 |
| 20260505032328 | 68 | 9 | 0.0 | 2.0 | 0.00 | 0.00 | 0.00 | 73 | 1016.5 |
| 20260505031825 | 68 | 2 | 1.0 | 2.0 | 0.00 | 0.00 | 0.00 | 73 | 1016.8 |
| 20260505031321 | 68 | 2 | 1.0 | 1.0 | 0.00 | 0.00 | 0.00 | 73 | 1016.5 |
| 20260505030819 | 69 | 14 | 2.0 | 2.0 | 0.00 | 0.00 | 0.00 | 73 | 1016.6 |
| 20260505030315 | 69 | 359 | 0.0 | 2.0 | 0.00 | 0.00 | 0.00 | 72 | 1016.8 |
| 20260505025810 | 69 | 352 | 0.0 | 1.0 | 0.00 | 0.00 | 0.00 | 72 | 1016.6 |
| 20260505025308 | 69 | 358 | 0.0 | 1.0 | 0.00 | 0.00 | 0.00 | 72 | 1016.5 |
| 20260505024806 | 69 | 141 | 1.0 | 2.0 | 0.00 | 0.00 | 0.00 | 72 | 1016.4 |
| 20260505024304 | 69 | 359 | 0.0 | 1.0 | 0.00 | 0.00 | 0.00 | 72 | 1016.6 |
| 20260505023801 | 69 | 358 | 0.0 | 3.0 | 0.00 | 0.00 | 0.00 | 72 | 1016.7 |
| 20260505023257 | 69 | 58 | 1.0 | 2.0 | 0.00 | 0.00 | 0.00 | 72 | 1016.7 |
| 20260505022755 | 69 | 356 | 0.0 | 1.0 | 0.00 | 0.00 | 0.00 | 71 | 1016.7 |
| 20260505022252 | 69 | 356 | 0.0 | 1.0 | 0.00 | 0.00 | 0.00 | 71 | 1016.5 |
| 20260505021749 | 69 | 15 | 1.0 | 2.0 | 0.00 | 0.00 | 0.00 | 71 | 1016.5 |
| 20260505021245 | 69 | 34 | 2.0 | 2.0 | 0.00 | 0.00 | 0.00 | 71 | 1016.8 |
| 20260505020741 | 69 | 157 | 2.0 | 3.0 | 0.00 | 0.00 | 0.00 | 70 | 1016.5 |
| 20260505020237 | 70 | 0 | 0.0 | 1.0 | 0.00 | 0.00 | 0.00 | 70 | 1016.3 |
| 20260505015734 | 69 | 341 | 0.0 | 2.0 | 0.00 | 0.00 | 0.00 | 69 | 1016.2 |
| 20260505015231 | 70 | 356 | 0.0 | 2.0 | 0.00 | 0.00 | 0.00 | 69 | 1016.2 |
| 20260505014728 | 70 | 350 | 0.0 | 1.0 | 0.00 | 0.00 | 0.00 | 69 | 1016.3 |
| 20260505014225 | 70 | 5 | 0.0 | 1.0 | 0.00 | 0.00 | 0.00 | 69 | 1016.3 |
| 20260505013722 | 70 | 4 | 0.0 | 1.0 | 0.00 | 0.00 | 0.00 | 68 | 1015.9 |
| 20260505013219 | 70 | 95 | 2.0 | 2.0 | 0.00 | 0.00 | 0.00 | 68 | 1016.0 |
| 20260505012717 | 70 | 337 | 0.0 | 4.0 | 0.00 | 0.00 | 0.00 | 67 | 1016.0 |
| 20260505012214 | 70 | 172 | 2.0 | 3.0 | 0.00 | 0.00 | 0.00 | 67 | 1015.9 |
| 20260505011710 | 71 | 73 | 1.0 | 3.0 | 0.00 | 0.00 | 0.00 | 67 | 1015.9 |
| 20260505011207 | 71 | 355 | 2.0 | 2.0 | 0.00 | 0.00 | 0.00 | 66 | 1015.9 |
| 20260505010702 | 71 | 41 | 1.0 | 3.0 | 0.00 | 0.00 | 0.00 | 66 | 1016.0 |
| 20260505010159 | 71 | 21 | 1.0 | 2.0 | 0.00 | 0.00 | 0.00 | 66 | 1015.8 |
| 20260505005655 | 71 | 359 | 0.0 | 1.0 | 0.00 | 0.00 | 0.00 | 65 | 1015.9 |
| 20260505005153 | 71 | 70 | 2.0 | 2.0 | 0.00 | 0.00 | 0.00 | 65 | 1015.8 |
| 20260505004649 | 71 | 4 | 1.0 | 2.0 | 0.00 | 0.00 | 0.00 | 64 | 1015.8 |
| 20260505004146 | 72 | 79 | 2.0 | 2.0 | 0.00 | 0.00 | 0.00 | 64 | 1015.7 |
| 20260505003643 | 72 | 15 | 1.0 | 3.0 | 0.00 | 0.00 | 0.00 | 64 | 1015.8 |
| 20260505003141 | 72 | 5 | 0.0 | 4.0 | 0.00 | 0.00 | 0.00 | 64 | 1015.7 |
| 20260505002637 | 72 | 117 | 2.0 | 4.0 | 0.00 | 0.00 | 0.00 | 63 | 1015.5 |
| 20260505002135 | 72 | 5 | 1.0 | 2.0 | 0.00 | 0.00 | 0.00 | 63 | 1015.5 |
| 20260505001632 | 73 | 15 | 1.0 | 2.0 | 0.00 | 0.00 | 0.00 | 62 | 1015.4 |
| 20260505001130 | 73 | 39 | 2.0 | 6.0 | 0.00 | 0.00 | 0.00 | 62 | 1015.3 |
| 20260505000627 | 73 | 4 | 2.0 | 4.0 | 0.00 | 0.00 | 0.00 | 62 | 1015.3 |
| 20260505000125 | 73 | 346 | 2.0 | 4.0 | 0.00 | 0.00 | 0.00 | 62 | 1015.3 |
| 20260504235620 | 73 | 57 | 1.0 | 2.0 | 0.00 | 0.00 | 0.00 | 61 | 1015.5 |
| 20260504235117 | 73 | 19 | 1.0 | 3.0 | 0.00 | 0.00 | 0.00 | 61 | 1015.4 |
| 20260504234614 | 74 | 356 | 1.0 | 4.0 | 0.00 | 0.00 | 0.00 | 60 | 1015.2 |
| 20260504234111 | 74 | 336 | 1.0 | 3.0 | 0.00 | 0.00 | 0.00 | 60 | 1014.7 |
| 20260504233607 | 74 | 21 | 0.0 | 4.0 | 0.00 | 0.00 | 0.00 | 59 | 1015.1 |
| 20260504233104 | 74 | 135 | 2.0 | 4.0 | 0.00 | 0.00 | 0.00 | 59 | 1015.1 |
| 20260504232601 | 75 | 14 | 3.0 | 7.0 | 0.00 | 0.00 | 0.00 | 58 | 1015.1 |
| 20260504232058 | 75 | 84 | 4.0 | 6.0 | 0.00 | 0.00 | 0.00 | 58 | 1015.1 |
| 20260504231555 | 75 | 128 | 3.0 | 4.0 | 0.00 | 0.00 | 0.00 | 57 | 1014.7 |
| 20260504231050 | 75 | 68 | 1.0 | 4.0 | 0.00 | 0.00 | 0.00 | 57 | 1015.1 |
| 20260504230547 | 75 | 58 | 3.0 | 4.0 | 0.00 | 0.00 | 0.00 | 57 | 1015.1 |
| 20260504230046 | 76 | 11 | 2.0 | 13.0 | 0.00 | 0.00 | 0.00 | 56 | 1014.9 |
| 20260504225543 | 76 | 75 | 3.0 | 7.0 | 0.00 | 0.00 | 0.00 | 55 | 1014.9 |
| 20260504225040 | 76 | 84 | 2.0 | 3.0 | 0.00 | 0.00 | 0.00 | 55 | 1015.0 |
| 20260504224536 | 77 | 68 | 3.0 | 7.0 | 0.00 | 0.00 | 0.00 | 54 | 1015.0 |
| 20260504224034 | 77 | 34 | 4.0 | 9.0 | 0.00 | 0.00 | 0.00 | 55 | 1015.0 |
| 20260504223530 | 77 | 128 | 5.0 | 11.0 | 0.00 | 0.00 | 0.00 | 55 | 1015.1 |
| 20260504223026 | 77 | 131 | 2.0 | 7.0 | 0.00 | 0.00 | 0.00 | 55 | 1014.9 |
| 20260504222523 | 77 | 317 | 3.0 | 13.0 | 0.00 | 0.00 | 0.00 | 54 | 1015.0 |
| 20260504222021 | 77 | 120 | 2.0 | 7.0 | 0.00 | 0.00 | 0.00 | 54 | 1014.8 |
| 20260504221518 | 77 | 57 | 3.0 | 4.0 | 0.00 | 0.00 | 0.00 | 53 | 1014.9 |
| 20260504221014 | 77 | 124 | 3.0 | 4.0 | 0.00 | 0.00 | 0.00 | 53 | 1014.9 |
| 20260504220511 | 77 | 119 | 6.0 | 7.0 | 0.00 | 0.00 | 0.00 | 54 | 1014.9 |
| 20260504220008 | 78 | 135 | 8.0 | 9.0 | 0.00 | 0.00 | 0.00 | 52 | 1015.0 |
| 20260504215505 | 78 | 140 | 4.0 | 7.0 | 0.00 | 0.00 | 0.00 | 52 | 1014.9 |
| 20260504215002 | 78 | 330 | 1.0 | 6.0 | 0.00 | 0.00 | 0.00 | 53 | 1014.8 |
| 20260504214458 | 78 | 204 | 2.0 | 3.0 | 0.00 | 0.00 | 0.00 | 53 | 1015.0 |
| 20260504213954 | 77 | 154 | 1.0 | 7.0 | 0.00 | 0.00 | 0.00 | 53 | 1014.8 |
| 20260504213450 | 77 | 103 | 4.0 | 6.0 | 0.00 | 0.00 | 0.00 | 53 | 1014.9 |
| 20260504212948 | 78 | 137 | 4.0 | 7.0 | 0.00 | 0.00 | 0.00 | 52 | 1014.6 |
| 20260504212443 | 78 | 21 | 1.0 | 8.0 | 0.00 | 0.00 | 0.00 | 52 | 1014.8 |
| 20260504211942 | 77 | 155 | 6.0 | 7.0 | 0.00 | 0.00 | 0.00 | 52 | 1014.8 |
| 20260504211437 | 78 | 112 | 8.0 | 13.0 | 0.00 | 0.00 | 0.00 | 51 | 1014.9 |
| 20260504210935 | 78 | 275 | 1.0 | 7.0 | 0.00 | 0.00 | 0.00 | 51 | 1014.9 |
| 20260504210432 | 78 | 129 | 4.0 | 8.0 | 0.00 | 0.00 | 0.00 | 51 | 1014.9 |
| 20260504205929 | 78 | 125 | 3.0 | 7.0 | 0.00 | 0.00 | 0.00 | 51 | 1015.0 |
| 20260504205427 | 80 | 27 | 2.0 | 8.0 | 0.00 | 0.00 | 0.00 | 50 | 1015.2 |
| 20260504204925 | 80 | 118 | 4.0 | 6.0 | 0.00 | 0.00 | 0.00 | 48 | 1015.1 |
| 20260504204423 | 79 | 158 | 3.0 | 7.0 | 0.00 | 0.00 | 0.00 | 50 | 1014.8 |
| 20260504203922 | 79 | 264 | 3.0 | 6.0 | 0.00 | 0.00 | 0.00 | 50 | 1014.9 |
| 20260504203419 | 79 | 6 | 5.0 | 10.0 | 0.00 | 0.00 | 0.00 | 49 | 1015.0 |
| 20260504202915 | 79 | 115 | 3.0 | 10.0 | 0.00 | 0.00 | 0.00 | 49 | 1014.9 |
| 20260504202412 | 78 | 355 | 2.0 | 2.0 | 0.00 | 0.00 | 0.00 | 51 | 1015.1 |
| 20260504201908 | 80 | 132 | 8.0 | 9.0 | 0.00 | 0.00 | 0.00 | 49 | 1015.1 |
| 20260504201406 | 79 | 136 | 3.0 | 6.0 | 0.00 | 0.00 | 0.00 | 49 | 1015.0 |
| 20260504200903 | 79 | 150 | 6.0 | 10.0 | 0.00 | 0.00 | 0.00 | 50 | 1015.2 |
| 20260504200359 | 79 | 291 | 3.0 | 10.0 | 0.00 | 0.00 | 0.00 | 50 | 1015.2 |
| 20260504195856 | 80 | 122 | 5.0 | 10.0 | 0.00 | 0.00 | 0.00 | 49 | 1015.5 |
| 20260504195351 | 80 | 21 | 2.0 | 6.0 | 0.00 | 0.00 | 0.00 | 49 | 1015.6 |
| 20260504194849 | 80 | 306 | 1.0 | 4.0 | 0.00 | 0.00 | 0.00 | 50 | 1015.6 |
| 20260504194344 | 80 | 158 | 2.0 | 9.0 | 0.00 | 0.00 | 0.00 | 49 | 1015.3 |
| 20260504193840 | 81 | 97 | 6.0 | 9.0 | 0.00 | 0.00 | 0.00 | 48 | 1015.5 |
| 20260504193338 | 79 | 359 | 4.0 | 7.0 | 0.00 | 0.00 | 0.00 | 49 | 1015.8 |
| 20260504192837 | 81 | 136 | 7.0 | 14.0 | 0.00 | 0.00 | 0.00 | 48 | 1015.6 |
| 20260504192334 | 80 | 159 | 2.0 | 7.0 | 0.00 | 0.00 | 0.00 | 48 | 1015.6 |
| 20260504191832 | 81 | 41 | 1.0 | 10.0 | 0.00 | 0.00 | 0.00 | 47 | 1015.8 |
| 20260504191330 | 81 | 20 | 6.0 | 9.0 | 0.00 | 0.00 | 0.00 | 48 | 1015.9 |
| 20260504190825 | 80 | 34 | 9.0 | 11.0 | 0.00 | 0.00 | 0.00 | 47 | 1015.9 |
| 20260504190321 | 80 | 4 | 1.0 | 8.0 | 0.00 | 0.00 | 0.00 | 49 | 1016.0 |
| 20260504185818 | 81 | 356 | 3.0 | 8.0 | 0.00 | 0.00 | 0.00 | 51 | 1016.1 |
| 20260504185315 | 81 | 72 | 7.0 | 11.0 | 0.00 | 0.00 | 0.00 | 47 | 1016.3 |
| 20260504184811 | 81 | 57 | 9.0 | 11.0 | 0.00 | 0.00 | 0.00 | 47 | 1016.0 |
| 20260504184307 | 79 | 77 | 2.0 | 7.0 | 0.00 | 0.00 | 0.00 | 49 | 1016.4 |
| 20260504183803 | 79 | 158 | 3.0 | 4.0 | 0.00 | 0.00 | 0.00 | 50 | 1016.5 |
| 20260504183300 | 80 | 34 | 2.0 | 4.0 | 0.00 | 0.00 | 0.00 | 48 | 1016.4 |
| 20260504182758 | 80 | 267 | 2.0 | 3.0 | 0.00 | 0.00 | 0.00 | 50 | 1016.4 |
| 20260504182255 | 78 | 161 | 5.0 | 9.0 | 0.00 | 0.00 | 0.00 | 49 | 1016.4 |
| 20260504181753 | 78 | 338 | 3.0 | 9.0 | 0.00 | 0.00 | 0.00 | 51 | 1016.3 |
| 20260504181249 | 79 | 136 | 6.0 | 10.0 | 0.00 | 0.00 | 0.00 | 48 | 1016.6 |
| 20260504180749 | 79 | 51 | 4.0 | 6.0 | 0.00 | 0.00 | 0.00 | 47 | 1016.5 |
| 20260504180247 | 80 | 17 | 4.0 | 7.0 | 0.00 | 0.00 | 0.00 | 47 | 1016.6 |
| 20260504175744 | 81 | 87 | 4.0 | 8.0 | 0.00 | 0.00 | 0.00 | 48 | 1016.6 |
| 20260504175241 | 81 | 84 | 1.0 | 7.0 | 0.00 | 0.00 | 0.00 | 47 | 1016.6 |
| 20260504174739 | 81 | 69 | 3.0 | 9.0 | 0.00 | 0.00 | 0.00 | 48 | 1016.6 |
| 20260504174237 | 81 | 49 | 1.0 | 4.0 | 0.00 | 0.00 | 0.00 | 50 | 1016.6 |
| 20260504173732 | 80 | 165 | 1.0 | 7.0 | 0.00 | 0.00 | 0.00 | 48 | 1016.7 |
| 20260504173230 | 79 | 122 | 6.0 | 13.0 | 0.00 | 0.00 | 0.00 | 49 | 1016.8 |
| 20260504172726 | 79 | 152 | 4.0 | 4.0 | 0.00 | 0.00 | 0.00 | 49 | 1016.9 |
| 20260504172223 | 81 | 157 | 5.0 | 9.0 | 0.00 | 0.00 | 0.00 | 48 | 1016.9 |
| 20260504171720 | 82 | 15 | 3.0 | 6.0 | 0.00 | 0.00 | 0.00 | 45 | 1016.6 |
| 20260504171217 | 81 | 139 | 4.0 | 6.0 | 0.00 | 0.00 | 0.00 | 44 | 1016.9 |
| 20260504170713 | 80 | 147 | 5.0 | 7.0 | 0.00 | 0.00 | 0.00 | 46 | 1016.8 |
| 20260504170211 | 81 | 58 | 1.0 | 8.0 | 0.00 | 0.00 | 0.00 | 45 | 1016.9 |
| 20260504160129 | 79 | 1 | 2.0 | 4.0 | 0.00 | 0.00 | 0.00 | 46 | 1017.5 |